Date String (YYYY-MM-DD hh:mm:ss) UTC,Instrument flags,absolute air pressure of the measurement (hPa),sample flow rate (lpm),inlet stack bypass flow (lpm),air temperature of the measurement (°C),ambient temperature measured by the external sensor (°C),aerosol sample conditioner tube jacket temperature (°C),OPC LED temperature (°C),internal box temperature (°C),relative humidity of the measurement (%),span deviation,mass concentration of particles derived from Lorenz-Mie calculation of OPC scattering (μg/m³),mass concentration of particles derived from Lorenz-Mie calculation of OPC scattering (μg/m³),mass concentration of particles derived from Lorenz-Mie calculation of OPC scattering (μg/m³)
DateTimeUTC,F1_M11,P_M11,Q1_M11,Q2_M11,T1_M11,T2_M11,T3_M11,T4_M11,T5_M11,U1_M11,ZSPAN_M11,X0_M11,X2_M11,X1_M11
2024-04-28 14:00:00,SystemResetWarning,0825.9,5.01,000.00,021.2,020.5,000.0,029.7,023.0,027.2,0000.0,0004.23,0003.63,0003.51
2024-04-28 14:01:00,SystemResetWarning,0825.9,5.00,000.00,021.2,020.5,000.0,029.7,023.0,027.2,0000.0,0004.18,0003.62,0003.53
2024-04-28 14:02:00,SystemResetWarning,0825.9,5.00,000.00,021.2,020.5,000.0,029.7,023.0,027.1,0000.0,0004.19,0003.63,0003.53
2024-04-28 14:03:00,SystemResetWarning,0825.8,5.00,000.00,021.2,020.5,000.0,029.7,023.0,027.1,0000.0,0004.17,0003.64,0003.55
2024-04-28 14:04:00,SystemResetWarning,0825.8,5.00,000.00,021.2,020.5,000.0,029.7,023.0,027.5,0000.0,0004.28,0003.65,0003.56
2024-04-28 14:05:00,SystemResetWarning,0825.9,5.00,000.00,021.2,020.5,000.0,029.7,023.0,027.6,0000.0,0004.25,0003.63,0003.55
2024-04-28 14:06:00,SystemResetWarning,0825.9,5.00,000.00,021.2,020.5,000.0,029.7,023.0,027.3,0000.0,0004.16,0003.60,0003.53
2024-04-28 14:07:00,SystemResetWarning,0825.9,5.01,000.00,021.2,020.5,000.0,029.7,023.0,027.4,0000.0,0004.22,0003.61,0003.54
2024-04-28 14:08:00,SystemResetWarning,0825.8,5.01,000.00,021.2,020.6,000.0,029.7,023.0,027.3,0000.0,0004.24,0003.62,0003.55
2024-04-28 14:09:00,SystemResetWarning,0825.9,5.00,000.00,021.2,020.6,000.0,029.7,023.0,027.3,0000.0,0004.25,0003.63,0003.56
2024-04-28 14:10:00,SystemResetWarning,0825.9,4.99,000.00,021.2,020.5,000.0,029.7,023.0,027.3,0000.0,0004.29,0003.65,0003.58
2024-04-28 14:11:00,SystemResetWarning,0825.9,4.99,000.00,021.2,020.6,000.0,029.7,023.0,027.4,0000.0,0004.42,0003.69,0003.60
2024-04-28 14:12:00,SystemResetWarning,0825.9,5.01,000.00,021.2,020.6,000.0,029.7,023.0,027.3,0000.0,0004.44,0003.70,0003.61
2024-04-28 14:13:00,SystemResetWarning,0825.9,5.01,000.00,021.2,020.6,000.0,029.7,023.0,027.1,0000.0,0004.46,0003.72,0003.63
2024-04-28 14:14:00,SystemResetWarning,0825.9,4.99,000.00,021.2,020.6,000.0,029.7,023.0,027.2,0000.0,0004.53,0003.77,0003.68
2024-04-28 14:15:00,SystemResetWarning,0825.9,5.00,000.00,021.2,020.6,000.0,029.7,023.0,027.3,0000.0,0004.48,0003.80,0003.72
2024-04-28 14:16:00,SystemResetWarning,0825.9,5.00,000.00,021.2,020.6,000.0,029.7,023.0,027.3,0000.0,0004.40,0003.81,0003.74
2024-04-28 14:17:00,SystemResetWarning,0825.9,5.00,000.00,021.2,020.6,000.0,029.7,023.0,027.3,0000.0,0004.51,0003.86,0003.78
2024-04-28 14:18:00,SystemResetWarning,0825.9,5.00,000.00,021.2,020.6,000.0,029.7,023.0,027.3,0000.0,0004.55,0003.91,0003.84
2024-04-28 14:19:00,SystemResetWarning,0825.9,5.00,000.00,021.2,020.6,000.0,029.7,023.0,027.3,0000.0,0004.69,0003.98,0003.91
2024-04-28 14:20:00,SystemResetWarning,0825.9,5.01,000.00,021.2,020.6,000.0,029.7,023.0,027.5,0000.0,0004.79,0004.04,0003.98
2024-04-28 14:21:00,SystemResetWarning,0826.0,5.00,000.00,021.2,020.6,000.0,029.7,023.0,027.3,0000.0,0004.81,0004.08,0004.03
2024-04-28 14:22:00,SystemResetWarning,0825.9,5.00,000.00,021.2,020.6,000.0,029.7,023.0,027.2,0000.0,0004.81,0004.13,0004.09
2024-04-28 14:23:00,SystemResetWarning,0825.9,5.00,000.00,021.2,020.6,000.0,029.7,023.0,027.3,0000.0,0004.89,0004.18,0004.14
2024-04-28 14:24:00,SystemResetWarning,0825.9,4.99,000.00,021.2,020.6,000.0,029.7,023.0,027.4,0000.0,0004.92,0004.21,0004.17
2024-04-28 14:25:00,SystemResetWarning,0825.8,5.00,000.00,021.2,020.6,000.0,029.7,023.1,027.1,0000.0,0004.90,0004.21,0004.17
2024-04-28 14:26:00,SystemResetWarning,0825.8,5.00,000.00,021.2,020.6,000.0,029.7,023.0,027.1,0000.0,0004.95,0004.24,0004.20
2024-04-28 14:27:00,SystemResetWarning,0825.8,5.01,000.00,021.2,020.6,000.0,029.7,023.0,027.2,0000.0,0005.04,0004.29,0004.24
2024-04-28 14:28:00,SystemResetWarning,0825.8,5.00,000.00,021.2,020.6,000.0,029.7,023.0,027.5,0000.0,0005.08,0004.32,0004.27
2024-04-28 14:29:00,SystemResetWarning,0825.8,5.00,000.00,021.2,020.6,000.0,029.7,023.1,027.4,0000.0,0005.10,0004.33,0004.28
2024-04-28 14:30:00,SystemResetWarning,0825.7,4.99,000.00,021.2,020.6,000.0,029.7,023.1,027.2,0000.0,0005.03,0004.32,0004.26
2024-04-28 14:31:00,SystemResetWarning,0825.7,5.00,000.00,021.2,020.6,000.0,029.7,023.0,026.5,0000.0,0004.99,0004.32,0004.27
2024-04-28 14:32:00,SystemResetWarning,0825.7,5.00,000.00,021.2,020.6,000.0,029.7,023.0,026.3,0000.0,0005.03,0004.35,0004.30
2024-04-28 14:33:00,SystemResetWarning,0825.7,5.01,000.00,021.2,020.6,000.0,029.7,023.0,026.5,0000.0,0005.08,0004.36,0004.29
2024-04-28 14:34:00,SystemResetWarning,0825.7,5.01,000.00,021.2,020.6,000.0,029.7,023.0,026.8,0000.0,0005.08,0004.36,0004.29
2024-04-28 14:35:00,SystemResetWarning,0825.7,5.00,000.00,021.2,020.6,000.0,029.7,023.0,027.0,0000.0,0005.11,0004.38,0004.31
2024-04-28 14:36:00,SystemResetWarning,0825.8,4.99,000.00,021.2,020.6,000.0,029.7,023.0,026.8,0000.0,0005.15,0004.40,0004.33
2024-04-28 14:37:00,SystemResetWarning,0825.8,4.99,000.00,021.2,020.6,000.0,029.7,023.0,026.6,0000.0,0005.26,0004.43,0004.35
2024-04-28 14:38:00,SystemResetWarning,0825.8,4.99,000.00,021.2,020.6,000.0,029.7,023.0,026.4,0000.0,0005.30,0004.46,0004.38
2024-04-28 14:39:00,SystemResetWarning,0825.8,5.02,000.00,021.2,020.6,000.0,029.7,023.0,026.5,0000.0,0005.39,0004.48,0004.40
2024-04-28 14:40:00,SystemResetWarning,0825.9,5.01,000.00,021.2,020.6,000.0,029.7,023.1,026.6,0000.0,0005.38,0004.48,0004.40
2024-04-28 14:41:00,SystemResetWarning,0825.9,4.99,000.00,021.2,020.6,000.0,029.7,023.1,026.4,0000.0,0005.36,0004.45,0004.37
2024-04-28 14:42:00,SystemResetWarning,0825.9,4.99,000.00,021.2,020.6,000.0,029.7,023.1,026.2,0000.0,0005.27,0004.39,0004.31
2024-04-28 14:43:00,SystemResetWarning,0825.9,5.00,000.00,021.2,020.6,000.0,029.7,023.1,025.9,0000.0,0005.17,0004.33,0004.26
2024-04-28 14:44:00,SystemResetWarning,0825.8,5.01,000.00,021.2,020.6,000.0,029.7,023.0,025.7,0000.0,0005.07,0004.29,0004.23
2024-04-28 14:45:00,SystemResetWarning,0825.8,5.01,000.00,021.2,020.6,000.0,029.7,023.1,025.6,0000.0,0005.02,0004.27,0004.21
2024-04-28 14:46:00,SystemResetWarning,0825.8,5.00,000.00,021.2,020.6,000.0,029.7,023.0,025.7,0000.0,0004.98,0004.23,0004.18
2024-04-28 14:47:00,SystemResetWarning,0825.8,4.99,000.00,021.2,020.6,000.0,029.7,023.0,025.7,0000.0,0004.92,0004.19,0004.13
2024-04-28 14:48:00,SystemResetWarning,0825.8,5.00,000.00,021.2,020.6,000.0,029.7,023.0,025.4,0000.0,0004.76,0004.11,0004.06
2024-04-28 14:49:00,SystemResetWarning,0825.8,4.99,000.00,021.2,020.6,000.0,029.7,023.0,025.7,0000.0,0004.65,0004.03,0003.98
2024-04-28 14:50:00,SystemResetWarning,0825.8,4.99,000.00,021.3,020.6,000.0,029.7,023.1,026.2,0000.0,0004.45,0003.95,0003.91
2024-04-28 14:51:00,SystemResetWarning,0825.8,5.00,000.00,021.3,020.6,000.0,029.7,023.1,025.9,0000.0,0004.37,0003.91,0003.87
2024-04-28 14:52:00,SystemResetWarning,0825.8,5.01,000.00,021.3,020.6,000.0,029.7,023.1,025.9,0000.0,0004.35,0003.91,0003.88
2024-04-28 14:53:00,SystemResetWarning,0825.8,5.01,000.00,021.3,020.6,000.0,029.7,023.1,025.9,0000.0,0004.41,0003.94,0003.90
2024-04-28 14:54:00,SystemResetWarning,0825.8,5.01,000.00,021.3,020.6,000.0,029.8,023.1,025.7,0000.0,0004.44,0003.96,0003.92
2024-04-28 14:55:00,SystemResetWarning,0825.8,4.99,000.00,021.3,020.6,000.0,029.8,023.1,025.4,0000.0,0004.46,0003.97,0003.92
2024-04-28 14:56:00,SystemResetWarning,0825.8,4.99,000.00,021.3,020.6,000.0,029.8,023.1,025.4,0000.0,0004.42,0003.95,0003.90
2024-04-28 14:57:00,SystemResetWarning,0825.8,5.02,000.00,021.3,020.6,000.0,029.8,023.1,025.2,0000.0,0004.45,0003.95,0003.89
2024-04-28 14:58:00,SystemResetWarning,0825.8,5.00,000.00,021.3,020.6,000.0,029.8,023.1,025.7,0000.0,0004.43,0003.94,0003.88
2024-04-28 14:59:00,SystemResetWarning,0825.7,5.00,000.00,021.3,020.6,000.0,029.8,023.1,025.5,0000.0,0004.42,0003.96,0003.91
